| time (UTC) | temp C | wind direction | speed KPH | gust KPH | rain 1hr cm | rain 24hr cm | rain mn cm | humidity % | barometer mb |
| 20260901022422 | 18 | 113 | 0.0 | 1.6 | 0.00 | 1.04 | 1.04 | 96 | 1017.6 |
| 20260901021916 | 18 | 129 | 0.0 | 1.6 | 0.00 | 1.04 | 1.04 | 96 | 1017.6 |
| 20260901021412 | 18 | 126 | 0.0 | 3.2 | 0.00 | 1.04 | 1.04 | 96 | 1017.7 |
| 20260901020907 | 18 | 202 | 0.0 | 1.6 | 0.00 | 1.04 | 1.04 | 96 | 1017.7 |
| 20260901020403 | 18 | 315 | 0.0 | 0.0 | 0.00 | 1.04 | 1.04 | 96 | 1017.7 |
| 20260901015902 | 18 | 315 | 0.0 | 0.0 | 0.00 | 1.04 | 1.04 | 96 | 1017.6 |
| 20260901015358 | 18 | 315 | 0.0 | 1.6 | 0.00 | 1.04 | 1.04 | 96 | 1017.8 |
| 20260901014857 | 18 | 230 | 0.0 | 0.0 | 0.00 | 1.04 | 1.04 | 96 | 1017.9 |
| 20260901014354 | 18 | 269 | 0.0 | 1.6 | 0.00 | 1.04 | 1.04 | 96 | 1017.9 |
| 20260901013849 | 18 | 219 | 0.0 | 3.2 | 0.00 | 1.04 | 1.04 | 96 | 1017.6 |
| 20260901013345 | 18 | 144 | 0.0 | 3.2 | 0.00 | 1.04 | 1.04 | 96 | 1017.8 |
| 20260901012840 | 18 | 132 | 0.0 | 4.8 | 0.00 | 1.04 | 1.04 | 96 | 1017.9 |
| 20260901012335 | 18 | 217 | 0.0 | 3.2 | 0.00 | 1.04 | 1.04 | 96 | 1017.8 |
| 20260901011831 | 18 | 129 | 0.0 | 1.6 | 0.00 | 1.04 | 1.04 | 96 | 1017.7 |
| 20260901011326 | 18 | 147 | 1.6 | 3.2 | 0.05 | 1.04 | 1.04 | 96 | 1017.8 |
| 20260901010819 | 18 | 129 | 0.0 | 1.6 | 0.36 | 1.04 | 1.04 | 96 | 1017.5 |
| 20260901010314 | 18 | 105 | 0.0 | 3.2 | 0.30 | 1.04 | 1.04 | 96 | 1017.6 |
| 20260901005813 | 18 | 166 | 0.0 | 3.2 | 0.05 | 0.99 | 0.99 | 96 | 1017.6 |
| 20260901005308 | 18 | 89 | 0.0 | 1.6 | 0.05 | 0.99 | 0.99 | 96 | 1017.6 |
| 20260901004808 | 18 | 217 | 0.0 | 1.6 | 0.00 | 0.99 | 0.99 | 96 | 1017.6 |
| 20260901004303 | 18 | 223 | 0.0 | 1.6 | 0.05 | 0.99 | 0.99 | 96 | 1017.5 |
| 20260901003802 | 18 | 217 | 0.0 | 1.6 | 0.05 | 0.99 | 0.99 | 96 | 1017.6 |
| 20260901003257 | 18 | 144 | 3.2 | 4.8 | 0.00 | 0.97 | 0.97 | 96 | 1017.6 |
| 20260901002750 | 18 | 130 | 0.0 | 1.6 | 0.00 | 0.97 | 0.97 | 96 | 1017.4 |
| 20260901002246 | 18 | 115 | 0.0 | 3.2 | 0.00 | 0.97 | 0.97 | 96 | 1017.4 |
| 20260901001741 | 18 | 112 | 0.0 | 3.2 | 0.05 | 0.97 | 0.97 | 96 | 1017.5 |
| 20260901001236 | 18 | 269 | 0.0 | 0.0 | 0.05 | 0.97 | 0.97 | 96 | 1017.4 |
| 20260901000726 | 18 | 74 | 3.2 | 3.2 | 0.05 | 0.97 | 0.97 | 96 | 1017.3 |
| 20260901000221 | 18 | 142 | 0.0 | 1.6 | 0.05 | 0.94 | 0.94 | 96 | 1017.3 |
| 20260831235719 | 18 | 322 | 0.0 | 1.6 | 0.05 | 0.94 | 0.94 | 96 | 1017.3 |
| 20260831235216 | 18 | 173 | 0.0 | 1.6 | 0.05 | 0.94 | 0.94 | 96 | 1017.4 |
| 20260831234715 | 18 | 194 | 1.6 | 3.2 | 0.00 | 0.94 | 0.94 | 96 | 1017.3 |
| 20260831234210 | 18 | 147 | 0.0 | 3.2 | 0.00 | 0.94 | 0.94 | 96 | 1017.3 |
| 20260831233705 | 18 | 269 | 0.0 | 1.6 | 0.00 | 0.94 | 0.94 | 96 | 1017.6 |
| 20260831233201 | 18 | 202 | 0.0 | 3.2 | 0.00 | 0.94 | 0.94 | 96 | 1017.5 |
| 20260831232700 | 18 | 233 | 0.0 | 1.6 | 0.05 | 0.94 | 0.94 | 96 | 1017.6 |
| 20260831232157 | 18 | 184 | 0.0 | 3.2 | 0.05 | 0.94 | 0.94 | 96 | 1017.5 |
| 20260831231653 | 18 | 202 | 0.0 | 3.2 | 0.00 | 0.94 | 0.94 | 96 | 1017.5 |
| 20260831231149 | 18 | 118 | 0.0 | 3.2 | 0.00 | 0.94 | 0.94 | 96 | 1017.7 |
| 20260831230643 | 18 | 135 | 0.0 | 0.0 | 0.00 | 0.94 | 0.94 | 96 | 1017.9 |
| 20260831230139 | 18 | 206 | 1.6 | 3.2 | 0.00 | 0.94 | 0.94 | 96 | 1017.9 |
| 20260831225638 | 18 | 129 | 0.0 | 3.2 | 0.00 | 0.94 | 0.94 | 96 | 1017.8 |
| 20260831225133 | 18 | 230 | 0.0 | 3.2 | 0.00 | 0.94 | 0.94 | 96 | 1017.7 |
| 20260831224629 | 18 | 103 | 0.0 | 1.6 | 0.00 | 0.94 | 0.94 | 96 | 1018.0 |
| 20260831224124 | 18 | 89 | 0.0 | 1.6 | 0.00 | 0.94 | 0.94 | 96 | 1018.0 |
| 20260831223619 | 18 | 89 | 0.0 | 3.2 | 0.05 | 0.94 | 0.94 | 96 | 1018.2 |
| 20260831223115 | 18 | 117 | 0.0 | 3.2 | 0.05 | 0.94 | 0.94 | 96 | 1018.2 |
| 20260831222611 | 18 | 129 | 0.0 | 3.2 | 0.05 | 0.91 | 0.91 | 96 | 1018.1 |
| 20260831222112 | 18 | 116 | 0.0 | 3.2 | 0.05 | 0.91 | 0.91 | 96 | 1018.3 |
| 20260831221607 | 18 | 139 | 0.0 | 3.2 | 0.13 | 0.91 | 0.91 | 96 | 1018.4 |
| 20260831221102 | 18 | 150 | 1.6 | 3.2 | 0.05 | 0.89 | 0.89 | 96 | 1018.3 |
| 20260831220556 | 18 | 217 | 0.0 | 0.0 | 0.05 | 0.89 | 0.89 | 96 | 1018.3 |
| 20260831220052 | 18 | 230 | 0.0 | 1.6 | 0.13 | 0.89 | 0.89 | 96 | 1018.4 |
| 20260831215548 | 18 | 217 | 0.0 | 3.2 | 0.13 | 0.89 | 0.89 | 96 | 1018.5 |
| 20260831215043 | 18 | 269 | 0.0 | 1.6 | 0.00 | 0.86 | 0.86 | 96 | 1018.4 |
| 20260831214541 | 18 | 232 | 0.0 | 4.8 | 0.00 | 0.86 | 0.86 | 96 | 1018.4 |
| 20260831214036 | 18 | 108 | 0.0 | 3.2 | 0.00 | 0.86 | 0.86 | 96 | 1018.4 |
| 20260831213533 | 18 | 121 | 1.6 | 3.2 | 0.00 | 0.86 | 0.86 | 96 | 1018.3 |
| 20260831213028 | 18 | 135 | 1.6 | 3.2 | 0.00 | 0.86 | 0.86 | 96 | 1018.7 |
| 20260831212524 | 18 | 235 | 0.0 | 3.2 | 0.00 | 0.86 | 0.86 | 96 | 1018.5 |
| 20260831212019 | 18 | 260 | 0.0 | 6.4 | 0.00 | 0.86 | 0.86 | 96 | 1018.5 |
| 20260831211514 | 18 | 226 | 1.6 | 6.4 | 0.00 | 0.86 | 0.86 | 96 | 1018.5 |
| 20260831211013 | 18 | 190 | 0.0 | 3.2 | 0.00 | 0.86 | 0.86 | 96 | 1018.6 |
| 20260831210508 | 18 | 227 | 1.6 | 4.8 | 0.00 | 0.86 | 0.86 | 96 | 1018.4 |
| 20260831210004 | 18 | 142 | 0.0 | 3.2 | 0.30 | 0.86 | 0.86 | 96 | 1018.4 |
| 20260831205459 | 18 | 174 | 0.0 | 4.8 | 0.61 | 0.86 | 0.86 | 96 | 1018.5 |
| 20260831204955 | 18 | 144 | 3.2 | 3.2 | 0.36 | 0.81 | 0.81 | 96 | 1018.4 |
| 20260831204454 | 18 | 37 | 0.0 | 1.6 | 0.18 | 0.74 | 0.74 | 96 | 1018.5 |
| 20260831203953 | 18 | 169 | 1.6 | 4.8 | 0.18 | 0.74 | 0.74 | 96 | 1018.5 |
| 20260831203448 | 18 | 232 | 0.0 | 3.2 | 0.05 | 0.74 | 0.74 | 96 | 1018.5 |
| 20260831202946 | 18 | 234 | 0.0 | 3.2 | 0.00 | 0.71 | 0.71 | 96 | 1018.4 |
| 20260831202442 | 18 | 87 | 1.6 | 4.8 | 0.00 | 0.71 | 0.71 | 96 | 1018.4 |
| 20260831201941 | 18 | 211 | 1.6 | 4.8 | 0.00 | 0.71 | 0.71 | 96 | 1018.6 |
| 20260831201439 | 18 | 266 | 1.6 | 3.2 | 0.00 | 0.71 | 0.71 | 96 | 1018.4 |
| 20260831200935 | 18 | 130 | 0.0 | 3.2 | 0.00 | 0.71 | 0.71 | 96 | 1018.6 |
| 20260831200430 | 18 | 114 | 0.0 | 3.2 | 0.05 | 0.71 | 0.71 | 96 | 1018.8 |
| 20260831195930 | 18 | 127 | 0.0 | 3.2 | 0.13 | 0.71 | 0.71 | 96 | 1018.6 |
| 20260831195426 | 18 | 66 | 0.0 | 1.6 | 0.30 | 0.71 | 0.71 | 96 | 1018.8 |
| 20260831194921 | 18 | 217 | 0.0 | 0.0 | 0.48 | 0.69 | 0.69 | 96 | 1018.7 |
| 20260831194416 | 18 | 228 | 0.0 | 4.8 | 0.30 | 0.64 | 0.64 | 96 | 1018.6 |
| 20260831193916 | 18 | 135 | 0.0 | 3.2 | 0.23 | 0.61 | 0.61 | 96 | 1018.7 |
| 20260831193411 | 18 | 204 | 0.0 | 8.0 | 0.05 | 0.58 | 0.58 | 96 | 1018.7 |
| 20260831192906 | 18 | 241 | 1.6 | 4.8 | 0.00 | 0.56 | 0.56 | 96 | 1018.9 |
| 20260831192401 | 18 | 198 | 1.6 | 6.4 | 0.00 | 0.56 | 0.56 | 96 | 1018.8 |
| 20260831191856 | 18 | 144 | 3.2 | 6.4 | 0.00 | 0.56 | 0.56 | 96 | 1018.9 |
| 20260831191352 | 17 | 168 | 1.6 | 3.2 | 0.00 | 0.56 | 0.56 | 96 | 1018.8 |
| 20260831190848 | 17 | 157 | 1.6 | 4.8 | 0.00 | 0.56 | 0.56 | 96 | 1019.2 |
| 20260831190347 | 17 | 176 | 1.6 | 3.2 | 0.00 | 0.56 | 0.56 | 96 | 1019.2 |
| 20260831185842 | 17 | 247 | 6.4 | 8.0 | 0.00 | 0.56 | 0.56 | 96 | 1019.1 |
| 20260831185338 | 17 | 208 | 3.2 | 6.4 | 0.00 | 0.56 | 0.56 | 96 | 1019.2 |
| 20260831184837 | 17 | 217 | 0.0 | 8.0 | 0.00 | 0.56 | 0.56 | 96 | 1019.3 |
| 20260831184332 | 17 | 238 | 4.8 | 8.0 | 0.05 | 0.56 | 0.56 | 96 | 1019.4 |
| 20260831183827 | 17 | 149 | 0.0 | 4.8 | 0.00 | 0.56 | 0.56 | 96 | 1019.2 |
| 20260831183326 | 17 | 234 | 6.4 | 6.4 | 0.00 | 0.56 | 0.56 | 96 | 1019.5 |
| 20260831182826 | 17 | 191 | 1.6 | 4.8 | 0.00 | 0.56 | 0.56 | 96 | 1019.4 |
| 20260831182321 | 17 | 179 | 0.0 | 3.2 | 0.00 | 0.56 | 0.56 | 96 | 1019.4 |
| 20260831181816 | 17 | 132 | 0.0 | 9.7 | 0.00 | 0.56 | 0.56 | 96 | 1019.8 |
| 20260831181311 | 17 | 209 | 0.0 | 4.8 | 0.05 | 0.56 | 0.56 | 96 | 1019.6 |
| 20260831180807 | 17 | 215 | 1.6 | 6.4 | 0.05 | 0.56 | 0.56 | 96 | 1019.8 |
| 20260831180301 | 17 | 225 | 1.6 | 3.2 | 0.05 | 0.56 | 0.56 | 96 | 1019.8 |
| 20260831175800 | 17 | 218 | 0.0 | 6.4 | 0.13 | 0.56 | 0.56 | 96 | 1020.0 |
| 20260831175257 | 17 | 156 | 1.6 | 4.8 | 0.13 | 0.53 | 0.53 | 96 | 1020.0 |
| 20260831174752 | 17 | 137 | 3.2 | 4.8 | 0.13 | 0.53 | 0.53 | 96 | 1020.0 |
| 20260831174248 | 17 | 237 | 4.8 | 4.8 | 0.13 | 0.51 | 0.51 | 96 | 1020.2 |
| 20260831173747 | 17 | 180 | 3.2 | 4.8 | 0.23 | 0.51 | 0.51 | 96 | 1020.2 |
| 20260831173241 | 17 | 180 | 0.0 | 4.8 | 0.36 | 0.51 | 0.51 | 96 | 1020.2 |
| 20260831172736 | 17 | 192 | 3.2 | 4.8 | 0.23 | 0.46 | 0.46 | 96 | 1020.3 |
| 20260831172231 | 17 | 272 | 0.0 | 4.8 | 0.23 | 0.46 | 0.46 | 96 | 1020.4 |
| 20260831171726 | 17 | 116 | 0.0 | 4.8 | 0.23 | 0.43 | 0.43 | 96 | 1020.3 |
| 20260831171224 | 17 | 228 | 0.0 | 4.8 | 0.30 | 0.41 | 0.41 | 96 | 1020.3 |
| 20260831170720 | 17 | 163 | 3.2 | 4.8 | 0.18 | 0.38 | 0.38 | 96 | 1020.6 |
| 20260831170216 | 17 | 204 | 4.8 | 6.4 | 0.13 | 0.36 | 0.36 | 96 | 1020.5 |
| 20260831165712 | 17 | 143 | 1.6 | 6.4 | 0.13 | 0.36 | 0.36 | 96 | 1020.4 |
| 20260831165209 | 17 | 172 | 0.0 | 6.4 | 0.18 | 0.33 | 0.33 | 96 | 1020.5 |
| 20260831164704 | 17 | 185 | 1.6 | 6.4 | 0.13 | 0.33 | 0.33 | 96 | 1020.4 |
| 20260831164200 | 17 | 160 | 1.6 | 8.0 | 0.13 | 0.30 | 0.30 | 96 | 1020.6 |
| 20260831163655 | 18 | 230 | 1.6 | 4.8 | 0.13 | 0.30 | 0.30 | 96 | 1020.7 |
| 20260831163151 | 18 | 202 | 0.0 | 4.8 | 0.18 | 0.28 | 0.28 | 96 | 1020.5 |
| 20260831162649 | 18 | 119 | 0.0 | 4.8 | 0.43 | 0.28 | 0.28 | 95 | 1020.6 |
| 20260831162148 | 18 | 126 | 3.2 | 4.8 | 0.61 | 0.25 | 0.25 | 95 | 1020.6 |
| 20260831161643 | 18 | 128 | 0.0 | 3.2 | 0.89 | 0.18 | 0.18 | 94 | 1020.7 |
| 20260831161140 | 18 | 138 | 0.0 | 3.2 | 0.89 | 0.15 | 0.15 | 93 | 1020.8 |
| 20260831160639 | 18 | 141 | 0.0 | 1.6 | 0.36 | 0.05 | 0.05 | 92 | 1020.9 |
| 20260831160134 | 18 | 130 | 0.0 | 1.6 | 0.00 | 0.00 | 0.00 | 91 | 1020.8 |
| 20260831155634 | 18 | 309 | 0.0 | 1.6 | 0.00 | 0.00 | 0.00 | 90 | 1020.8 |
| 20260831155129 | 18 | 89 | 0.0 | 0.0 | 0.00 | 0.00 | 0.00 | 90 | 1020.8 |
| 20260831154625 | 18 | 89 | 0.0 | 3.2 | 0.00 | 0.00 | 0.00 | 89 | 1020.6 |
| 20260831154120 | 18 | 176 | 0.0 | 3.2 | 0.00 | 0.00 | 0.00 | 89 | 1020.6 |
| 20260831153619 | 18 | 145 | 1.6 | 3.2 | 0.00 | 0.00 | 0.00 | 88 | 1020.5 |
| 20260831153116 | 18 | 180 | 0.0 | 4.8 | 0.00 | 0.00 | 0.00 | 88 | 1020.7 |
| 20260831152611 | 18 | 124 | 1.6 | 4.8 | 0.00 | 0.00 | 0.00 | 88 | 1020.6 |
| 20260831152107 | 18 | 109 | 3.2 | 4.8 | 0.00 | 0.00 | 0.00 | 88 | 1020.5 |
| 20260831151606 | 18 | 224 | 1.6 | 9.7 | 0.00 | 0.00 | 0.00 | 88 | 1020.6 |
| 20260831151101 | 18 | 192 | 3.2 | 6.4 | 0.00 | 0.00 | 0.00 | 88 | 1020.5 |
| 20260831150556 | 18 | 176 | 0.0 | 4.8 | 0.00 | 0.00 | 0.00 | 87 | 1020.5 |
| 20260831150052 | 18 | 183 | 4.8 | 6.4 | 0.00 | 0.00 | 0.00 | 87 | 1020.5 |
| 20260831145546 | 18 | 260 | 0.0 | 8.0 | 0.00 | 0.00 | 0.00 | 88 | 1020.4 |
| 20260831145042 | 18 | 199 | 0.0 | 6.4 | 0.00 | 0.00 | 0.00 | 88 | 1020.5 |
| 20260831144537 | 18 | 193 | 0.0 | 4.8 | 0.00 | 0.00 | 0.00 | 88 | 1020.3 |
| 20260831144033 | 18 | 122 | 0.0 | 8.0 | 0.00 | 0.00 | 0.00 | 89 | 1020.4 |
| 20260831143527 | 18 | 260 | 1.6 | 4.8 | 0.00 | 0.00 | 0.00 | 89 | 1020.6 |
| 20260831143023 | 18 | 57 | 0.0 | 3.2 | 0.00 | 0.00 | 0.00 | 88 | 1020.5 |
| 20260831142520 | 18 | 142 | 3.2 | 9.7 | 0.00 | 0.00 | 0.00 | 88 | 1020.5 |
| 20260831142015 | 18 | 161 | 1.6 | 6.4 | 0.00 | 0.00 | 0.00 | 88 | 1020.4 |
| 20260831141513 | 18 | 266 | 0.0 | 6.4 | 0.00 | 0.00 | 0.00 | 88 | 1020.4 |
| 20260831141008 | 18 | 167 | 1.6 | 8.0 | 0.00 | 0.00 | 0.00 | 88 | 1020.4 |
| 20260831140503 | 18 | 167 | 3.2 | 4.8 | 0.00 | 0.00 | 0.00 | 88 | 1020.4 |
| 20260831140002 | 18 | 167 | 3.2 | 4.8 | 0.00 | 0.00 | 0.00 | 88 | 1020.4 |
| 20260831135500 | 18 | 192 | 3.2 | 6.4 | 0.00 | 0.00 | 0.00 | 88 | 1020.4 |
| 20260831134955 | 18 | 139 | 3.2 | 6.4 | 0.00 | 0.00 | 0.00 | 89 | 1020.4 |
| 20260831134452 | 18 | 164 | 0.0 | 6.4 | 0.00 | 0.00 | 0.00 | 89 | 1020.3 |
| 20260831133951 | 18 | 185 | 0.0 | 8.0 | 0.00 | 0.00 | 0.00 | 88 | 1020.5 |
| 20260831133446 | 18 | 149 | 4.8 | 6.4 | 0.00 | 0.00 | 0.00 | 88 | 1020.6 |
| 20260831132941 | 18 | 216 | 3.2 | 4.8 | 0.00 | 0.00 | 0.00 | 89 | 1020.6 |
| 20260831132437 | 18 | 184 | 4.8 | 4.8 | 0.00 | 0.00 | 0.00 | 89 | 1020.7 |
| 20260831131936 | 18 | 189 | 3.2 | 6.4 | 0.00 | 0.00 | 0.00 | 90 | 1020.8 |
| 20260831131431 | 18 | 160 | 0.0 | 4.8 | 0.00 | 0.00 | 0.00 | 91 | 1020.7 |
| 20260831130927 | 18 | 129 | 0.0 | 3.2 | 0.00 | 0.00 | 0.00 | 92 | 1020.7 |
| 20260831130422 | 17 | 151 | 4.8 | 8.0 | 0.00 | 0.00 | 0.00 | 92 | 1020.8 |
| 20260831125921 | 17 | 145 | 0.0 | 3.2 | 0.00 | 0.00 | 0.00 | 95 | 1020.7 |
| 20260831125416 | 17 | 116 | 4.8 | 6.4 | 0.00 | 0.00 | 0.00 | 96 | 1020.9 |
| 20260831124912 | 17 | 142 | 3.2 | 4.8 | 0.00 | 0.00 | 0.00 | 96 | 1020.7 |
| 20260831124408 | 17 | 142 | 3.2 | 4.8 | 0.00 | 0.00 | 0.00 | 96 | 1020.6 |
| 20260831123908 | 17 | 137 | 1.6 | 3.2 | 0.00 | 0.00 | 0.00 | 96 | 1020.8 |
| 20260831123407 | 16 | 109 | 1.6 | 3.2 | 0.00 | 0.00 | 0.00 | 96 | 1020.6 |
| 20260831122902 | 16 | 144 | 1.6 | 4.8 | 0.00 | 0.00 | 0.00 | 96 | 1020.6 |
| 20260831122357 | 16 | 147 | 1.6 | 3.2 | 0.00 | 0.00 | 0.00 | 96 | 1020.5 |
| 20260831121852 | 16 | 50 | 0.0 | 1.6 | 0.00 | 0.00 | 0.00 | 96 | 1020.6 |
| 20260831121348 | 16 | 76 | 0.0 | 1.6 | 0.00 | 0.00 | 0.00 | 96 | 1021.0 |
| 20260831120844 | 16 | 19 | 0.0 | 3.2 | 0.00 | 0.00 | 0.00 | 96 | 1020.8 |
| 20260831120338 | 16 | 224 | 0.0 | 3.2 | 0.00 | 0.00 | 0.00 | 96 | 1020.9 |
| 20260831115833 | 16 | 89 | 0.0 | 1.6 | 0.00 | 0.00 | 0.00 | 96 | 1020.9 |
| 20260831115330 | 16 | 119 | 0.0 | 1.6 | 0.00 | 0.00 | 0.00 | 96 | 1020.9 |
| 20260831114829 | 15 | 276 | 0.0 | 1.6 | 0.00 | 0.00 | 0.00 | 96 | 1020.9 |
| 20260831114327 | 15 | 6 | 0.0 | 1.6 | 0.00 | 0.00 | 0.00 | 96 | 1020.8 |
| 20260831113824 | 15 | 89 | 0.0 | 1.6 | 0.00 | 0.00 | 0.00 | 96 | 1020.9 |
| 20260831113323 | 15 | 94 | 1.6 | 3.2 | 0.00 | 0.00 | 0.00 | 96 | 1020.7 |
| 20260831112818 | 15 | 72 | 0.0 | 3.2 | 0.00 | 0.00 | 0.00 | 96 | 1020.5 |
| 20260831112313 | 15 | 142 | 0.0 | 1.6 | 0.00 | 0.00 | 0.00 | 96 | 1020.7 |
| 20260831111808 | 15 | 89 | 1.6 | 3.2 | 0.00 | 0.00 | 0.00 | 96 | 1020.6 |
| 20260831111305 | 15 | 96 | 1.6 | 3.2 | 0.00 | 0.00 | 0.00 | 96 | 1020.8 |
| 20260831110801 | 15 | 212 | 0.0 | 3.2 | 0.00 | 0.00 | 0.00 | 96 | 1020.8 |
| 20260831110255 | 15 | 224 | 0.0 | 3.2 | 0.00 | 0.00 | 0.00 | 96 | 1020.4 |
| 20260831105753 | 15 | 147 | 0.0 | 3.2 | 0.00 | 0.00 | 0.00 | 96 | 1020.1 |
| 20260831105250 | 15 | 106 | 0.0 | 3.2 | 0.00 | 0.00 | 0.00 | 96 | 1020.2 |
| 20260831104749 | 15 | 87 | 0.0 | 3.2 | 0.00 | 0.00 | 0.00 | 96 | 1020.0 |
| 20260831104246 | 15 | 60 | 0.0 | 3.2 | 0.00 | 0.00 | 0.00 | 96 | 1020.2 |
| 20260831103746 | 15 | 256 | 0.0 | 3.2 | 0.00 | 0.00 | 0.00 | 96 | 1020.1 |
| 20260831103242 | 15 | 29 | 0.0 | 3.2 | 0.00 | 0.00 | 0.00 | 96 | 1020.0 |
| 20260831102742 | 15 | 134 | 0.0 | 3.2 | 0.00 | 0.00 | 0.00 | 96 | 1019.9 |
| 20260831102236 | 15 | 124 | 0.0 | 3.2 | 0.00 | 0.00 | 0.00 | 96 | 1019.9 |
| 20260831101732 | 14 | 224 | 0.0 | 1.6 | 0.00 | 0.00 | 0.00 | 96 | 1020.1 |
| 20260831101228 | 14 | 124 | 0.0 | 1.6 | 0.00 | 0.00 | 0.00 | 96 | 1020.1 |
| 20260831100724 | 14 | 111 | 0.0 | 1.6 | 0.00 | 0.00 | 0.00 | 96 | 1020.2 |
| 20260831100219 | 14 | 82 | 0.0 | 3.2 | 0.00 | 0.00 | 0.00 | 96 | 1020.2 |
| 20260831095718 | 14 | 30 | 0.0 | 3.2 | 0.00 | 0.00 | 0.00 | 96 | 1020.1 |
| 20260831095213 | 14 | 37 | 0.0 | 1.6 | 0.00 | 0.00 | 0.00 | 96 | 1020.3 |
| 20260831094708 | 15 | 37 | 0.0 | 3.2 | 0.00 | 0.00 | 0.00 | 96 | 1020.2 |
| 20260831094204 | 14 | 122 | 1.6 | 3.2 | 0.00 | 0.00 | 0.00 | 96 | 1020.3 |
| 20260831093700 | 14 | 129 | 0.0 | 1.6 | 0.00 | 0.00 | 0.00 | 96 | 1020.2 |
| 20260831093155 | 14 | 116 | 0.0 | 3.2 | 0.00 | 0.00 | 0.00 | 96 | 1020.2 |
| 20260831092651 | 14 | 143 | 3.2 | 3.2 | 0.00 | 0.00 | 0.00 | 96 | 1020.1 |
| 20260831092147 | 14 | 112 | 1.6 | 3.2 | 0.00 | 0.00 | 0.00 | 96 | 1020.1 |
| 20260831091646 | 14 | 142 | 1.6 | 4.8 | 0.00 | 0.00 | 0.00 | 96 | 1020.3 |
| 20260831091142 | 13 | 115 | 3.2 | 3.2 | 0.00 | 0.00 | 0.00 | 96 | 1020.2 |
| 20260831090637 | 13 | 106 | 1.6 | 3.2 | 0.00 | 0.00 | 0.00 | 96 | 1020.3 |
| 20260831090133 | 13 | 30 | 1.6 | 3.2 | 0.00 | 0.00 | 0.00 | 96 | 1020.1 |
| 20260831085628 | 13 | 37 | 0.0 | 1.6 | 0.00 | 0.00 | 0.00 | 96 | 1020.1 |
| 20260831085124 | 14 | 50 | 0.0 | 1.6 | 0.00 | 0.00 | 0.00 | 96 | 1020.0 |
| 20260831084619 | 14 | 243 | 0.0 | 3.2 | 0.00 | 0.00 | 0.00 | 96 | 1019.9 |
| 20260831084115 | 15 | 66 | 3.2 | 3.2 | 0.00 | 0.00 | 0.00 | 96 | 1019.6 |
| 20260831083611 | 14 | 126 | 1.6 | 3.2 | 0.00 | 0.00 | 0.00 | 96 | 1019.8 |
| 20260831083106 | 13 | 92 | 3.2 | 3.2 | 0.00 | 0.00 | 0.00 | 96 | 1020.2 |
| 20260831082604 | 13 | 119 | 1.6 | 3.2 | 0.00 | 0.00 | 0.00 | 96 | 1020.0 |
| 20260831082100 | 13 | 121 | 0.0 | 3.2 | 0.00 | 0.00 | 0.00 | 96 | 1020.2 |
| 20260831081555 | 13 | 6 | 1.6 | 3.2 | 0.00 | 0.00 | 0.00 | 96 | 1019.8 |
| 20260831081051 | 13 | 129 | 0.0 | 0.0 | 0.00 | 0.00 | 0.00 | 96 | 1020.0 |
| 20260831080546 | 13 | 32 | 0.0 | 1.6 | 0.00 | 0.00 | 0.00 | 96 | 1019.8 |
| 20260831080041 | 14 | 50 | 0.0 | 1.6 | 0.00 | 0.00 | 0.00 | 96 | 1019.6 |
| 20260831075536 | 13 | 115 | 1.6 | 3.2 | 0.00 | 0.00 | 0.00 | 96 | 1020.1 |
| 20260831075032 | 14 | 89 | 0.0 | 0.0 | 0.00 | 0.00 | 0.00 | 96 | 1020.0 |
| 20260831074531 | 14 | 89 | 0.0 | 1.6 | 0.00 | 0.00 | 0.00 | 96 | 1020.1 |
| 20260831074031 | 14 | 89 | 0.0 | 0.0 | 0.00 | 0.00 | 0.00 | 96 | 1020.3 |
| 20260831073526 | 14 | 113 | 0.0 | 0.0 | 0.00 | 0.00 | 0.00 | 96 | 1020.0 |
| 20260831073026 | 14 | 113 | 0.0 | 1.6 | 0.00 | 0.00 | 0.00 | 96 | 1019.9 |
| 20260831072521 | 14 | 111 | 1.6 | 1.6 | 0.00 | 0.00 | 0.00 | 96 | 1020.1 |
| 20260831072018 | 14 | 37 | 0.0 | 1.6 | 0.00 | 0.00 | 0.00 | 96 | 1019.9 |
| 20260831071516 | 14 | 66 | 0.0 | 1.6 | 0.00 | 0.00 | 0.00 | 96 | 1020.0 |
| 20260831071012 | 14 | 142 | 0.0 | 1.6 | 0.00 | 0.00 | 0.00 | 96 | 1020.0 |
| 20260831070510 | 15 | 98 | 0.0 | 1.6 | 0.00 | 0.00 | 0.00 | 96 | 1020.1 |
| 20260831070005 | 15 | 103 | 0.0 | 1.6 | 0.00 | 0.00 | 0.00 | 96 | 1019.9 |
| 20260831065503 | 15 | 32 | 0.0 | 3.2 | 0.00 | 0.00 | 0.00 | 96 | 1020.3 |
| 20260831064957 | 15 | 142 | 0.0 | 1.6 | 0.00 | 0.00 | 0.00 | 96 | 1020.0 |
| 20260831064453 | 15 | 50 | 0.0 | 3.2 | 0.00 | 0.00 | 0.00 | 96 | 1020.1 |
| 20260831063948 | 15 | 55 | 0.0 | 0.0 | 0.00 | 0.00 | 0.00 | 96 | 1019.9 |
| 20260831063443 | 15 | 71 | 0.0 | 3.2 | 0.00 | 0.00 | 0.00 | 96 | 1019.8 |
| 20260831062937 | 15 | 89 | 0.0 | 3.2 | 0.00 | 0.00 | 0.00 | 96 | 1020.1 |
| 20260831062433 | 15 | 119 | 0.0 | 1.6 | 0.00 | 0.00 | 0.00 | 96 | 1020.3 |
| 20260831061932 | 15 | 202 | 0.0 | 3.2 | 0.00 | 0.00 | 0.00 | 96 | 1020.3 |
| 20260831061430 | 15 | 131 | 1.6 | 3.2 | 0.00 | 0.00 | 0.00 | 96 | 1020.2 |
| 20260831060927 | 16 | 113 | 0.0 | 3.2 | 0.00 | 0.00 | 0.00 | 96 | 1020.3 |
| 20260831060427 | 16 | 110 | 0.0 | 0.0 | 0.00 | 0.00 | 0.00 | 96 | 1020.2 |
| 20260831055927 | 16 | 89 | 0.0 | 3.2 | 0.00 | 0.00 | 0.00 | 96 | 1020.4 |
| 20260831055422 | 16 | 121 | 1.6 | 3.2 | 0.00 | 0.00 | 0.00 | 96 | 1020.6 |
| 20260831054917 | 16 | 149 | 0.0 | 1.6 | 0.00 | 0.00 | 0.00 | 96 | 1020.6 |
| 20260831054412 | 16 | 44 | 0.0 | 1.6 | 0.00 | 0.00 | 0.00 | 96 | 1020.7 |
| 20260831053912 | 16 | 53 | 0.0 | 1.6 | 0.00 | 0.00 | 0.00 | 96 | 1020.6 |
| 20260831053409 | 16 | 89 | 1.6 | 3.2 | 0.00 | 0.00 | 0.00 | 96 | 1020.4 |
| 20260831052905 | 16 | 217 | 0.0 | 3.2 | 0.00 | 0.00 | 0.00 | 96 | 1020.7 |
| 20260831052404 | 16 | 147 | 0.0 | 1.6 | 0.00 | 0.00 | 0.00 | 96 | 1020.4 |
| 20260831051903 | 16 | 142 | 0.0 | 0.0 | 0.00 | 0.00 | 0.00 | 96 | 1020.5 |
| 20260831051401 | 16 | 129 | 1.6 | 3.2 | 0.00 | 0.00 | 0.00 | 95 | 1020.6 |
| 20260831050856 | 16 | 139 | 0.0 | 1.6 | 0.00 | 0.00 | 0.00 | 95 | 1020.5 |
| 20260831050350 | 16 | 120 | 0.0 | 3.2 | 0.00 | 0.00 | 0.00 | 95 | 1020.5 |
| 20260831045844 | 16 | 142 | 0.0 | 0.0 | 0.00 | 0.00 | 0.00 | 94 | 1020.5 |
| 20260831045343 | 16 | 142 | 0.0 | 0.0 | 0.00 | 0.00 | 0.00 | 94 | 1020.5 |
| 20260831044838 | 16 | 142 | 0.0 | 0.0 | 0.00 | 0.00 | 0.00 | 94 | 1020.5 |
| 20260831044333 | 17 | 142 | 0.0 | 0.0 | 0.00 | 0.00 | 0.00 | 94 | 1020.5 |
| 20260831043830 | 17 | 122 | 0.0 | 1.6 | 0.00 | 0.00 | 0.00 | 94 | 1020.7 |
| 20260831043328 | 17 | 124 | 0.0 | 3.2 | 0.00 | 0.00 | 0.00 | 94 | 1020.6 |
| 20260831042824 | 17 | 142 | 0.0 | 1.6 | 0.00 | 0.00 | 0.00 | 94 | 1020.4 |
| 20260831042323 | 17 | 89 | 0.0 | 0.0 | 0.00 | 0.00 | 0.00 | 93 | 1020.4 |
| 20260831041819 | 17 | 89 | 0.0 | 0.0 | 0.00 | 0.00 | 0.00 | 93 | 1020.5 |
| 20260831041318 | 17 | 135 | 0.0 | 0.0 | 0.00 | 0.00 | 0.00 | 93 | 1020.7 |
| 20260831040813 | 17 | 130 | 1.6 | 1.6 | 0.00 | 0.00 | 0.00 | 93 | 1020.4 |
| 20260831040312 | 17 | 129 | 0.0 | 0.0 | 0.00 | 0.00 | 0.00 | 93 | 1020.5 |
| 20260831035811 | 17 | 129 | 0.0 | 1.6 | 0.00 | 0.00 | 0.00 | 93 | 1020.4 |
| 20260831035309 | 17 | 117 | 0.0 | 1.6 | 0.00 | 0.00 | 0.00 | 92 | 1020.5 |
| 20260831034804 | 17 | 126 | 1.6 | 1.6 | 0.00 | 0.00 | 0.00 | 92 | 1020.5 |
| 20260831034259 | 17 | 142 | 0.0 | 1.6 | 0.00 | 0.00 | 0.00 | 92 | 1020.6 |
| 20260831033754 | 17 | 135 | 0.0 | 0.0 | 0.00 | 0.00 | 0.00 | 92 | 1020.5 |
| 20260831033249 | 17 | 130 | 0.0 | 3.2 | 0.00 | 0.00 | 0.00 | 92 | 1020.5 |
| 20260831032744 | 17 | 134 | 0.0 | 1.6 | 0.00 | 0.00 | 0.00 | 92 | 1020.6 |
| 20260831032239 | 17 | 143 | 1.6 | 1.6 | 0.00 | 0.00 | 0.00 | 92 | 1020.5 |
| 20260831031734 | 17 | 147 | 0.0 | 1.6 | 0.00 | 0.00 | 0.00 | 92 | 1020.7 |
| 20260831031228 | 17 | 147 | 0.0 | 1.6 | 0.00 | 0.00 | 0.00 | 91 | 1020.6 |
| 20260831030728 | 17 | 150 | 0.0 | 1.6 | 0.00 | 0.00 | 0.00 | 91 | 1020.5 |
| 20260831030226 | 17 | 50 | 0.0 | 0.0 | 0.00 | 0.00 | 0.00 | 91 | 1020.6 |
| 20260831025726 | 17 | 124 | 0.0 | 1.6 | 0.00 | 0.00 | 0.00 | 91 | 1020.6 |
| 20260831025220 | 17 | 69 | 0.0 | 0.0 | 0.00 | 0.00 | 0.00 | 90 | 1020.6 |
| 20260831024717 | 17 | 69 | 0.0 | 1.6 | 0.00 | 0.00 | 0.00 | 90 | 1020.5 |
| 20260831024215 | 17 | 246 | 0.0 | 0.0 | 0.00 | 0.00 | 0.00 | 89 | 1020.7 |
| 20260831023714 | 17 | 246 | 0.0 | 0.0 | 0.00 | 0.00 | 0.00 | 89 | 1020.7 |
| 20260831023213 | 17 | 246 | 0.0 | 0.0 | 0.00 | 0.00 | 0.00 | 89 | 1020.7 |
| 20260831022703 | 17 | 246 | 0.0 | 4.8 | 0.00 | 0.00 | 0.00 | 89 | 1020.6 |